Westhampton Beach, NY

4:50 AM EDT on May 28, 2018 (GMT -0400)
The Gabreski

Weather History for KFOK - May, 2014

Change the Weather History Date:

Friday, May 30, 2014

  Actual Average Record
Temperature  
Mean Temperature 50 °F -  
Max Temperature 66 °F 67 °F 86 °F (2011)
Min Temperature 36 °F 48 °F 33 °F (2004)
Degree Days  
Heating Degree Days 15    
Moisture  
Dew Point 46 °F    
Average Humidity 74    
Maximum Humidity 93    
Minimum Humidity 50    
Precipitation  
Precipitation 0.00 in - - ()
Sea Level Pressure  
Sea Level Pressure 30.09 in    
Wind  
Wind Speed 3 mph (South)    
Max Wind Speed 10 mph    
Max Gust Speed -    
Visibility 10 miles    
Events Rain    
Averages and records for this station are not official NWS values.
T = Trace of Precipitation, MM = Missing Value Source: NWS Daily Summary

Daily Weather History Graph

Daily Weather History Graph

Search for Another Location

Airport or City:

Astronomy

May. 30, 2014 Rise Set
Actual Time 5:22 AM EDT 8:14 PM EDT
Civil Twilight 4:49 AM EDT 8:47 PM EDT
Nautical Twilight 4:08 AM EDT 9:28 PM EDT
Astronomical Twilight 3:21 AM EDT 10:15 PM EDT
Moon 7:04 AM EDT (5/30) 9:48 PM EDT (5/30)
Length of Visible Light 15h 57m
Length of Day
14h 52m
Waxing Crescent, 4% of the Moon is Illuminated
May 30
Waxing Crescent
Jun 5
First Quarter
Jun 13
Full
Jun 19
Last Quarter
Jun 27
New

Hourly Weather History & Observations

Time (EDT) Temp. Dew Point Humidity Pressure Visibility Wind Dir Wind Speed Gust Speed Precip Events Conditions
12:53 AM 37.9 °F 36.0 °F 93% 30.17 in 10.0 mi Calm Calm - N/A   Clear
1:53 AM 36.0 °F 34.0 °F 93% 30.15 in 10.0 mi Calm Calm - N/A   Clear
2:53 AM 37.0 °F 34.0 °F 89% 30.14 in 10.0 mi Calm Calm - N/A   Mostly Cloudy
3:53 AM 42.1 °F 39.0 °F 89% 30.13 in 10.0 mi Calm Calm - N/A   Overcast
4:53 AM 42.1 °F 39.0 °F 89% 30.13 in 10.0 mi Calm Calm - N/A   Overcast
5:53 AM 42.1 °F 39.9 °F 92% 30.13 in 10.0 mi Calm Calm - N/A   Overcast
6:53 AM 50.0 °F 46.9 °F 89% 30.12 in 10.0 mi Calm Calm - N/A   Overcast
7:53 AM 55.0 °F 46.9 °F 74% 30.12 in 10.0 mi Calm Calm - N/A   Overcast
8:53 AM 60.1 °F 46.9 °F 62% 30.12 in 10.0 mi Calm Calm - N/A   Overcast
9:53 AM 62.1 °F 43.0 °F 50% 30.11 in 10.0 mi Calm Calm - N/A   Mostly Cloudy
10:53 AM 62.1 °F 48.0 °F 60% 30.10 in 10.0 mi SE 5.8 mph - N/A   Clear
11:53 AM 62.1 °F 48.0 °F 60% 30.10 in 10.0 mi SE 9.2 mph - N/A   Clear
12:53 PM 62.1 °F 48.0 °F 60% 30.09 in 10.0 mi South 8.1 mph - N/A   Clear
1:53 PM 64.0 °F 48.0 °F 56% 30.08 in 10.0 mi SSW 9.2 mph - N/A   Scattered Clouds
2:53 PM 64.0 °F 48.0 °F 56% 30.06 in 10.0 mi South 10.4 mph - N/A   Scattered Clouds
3:53 PM 64.0 °F 48.9 °F 58% 30.05 in 10.0 mi SSW 10.4 mph - N/A   Partly Cloudy
4:53 PM 63.0 °F 48.0 °F 58% 30.04 in 10.0 mi SSW 8.1 mph - N/A   Clear
5:53 PM 62.1 °F 48.0 °F 60% 30.03 in 10.0 mi SSW 9.2 mph - N/A   Clear
6:53 PM 60.1 °F 48.0 °F 64% 30.02 in 10.0 mi SW 6.9 mph - N/A   Mostly Cloudy
7:53 PM 57.9 °F 50.0 °F 75% 30.04 in 10.0 mi SSW 4.6 mph - N/A   Overcast
8:53 PM 57.9 °F 52.0 °F 81% 30.03 in 10.0 mi Calm Calm - 0.00 in Rain Light Rain
9:53 PM 55.9 °F 52.0 °F 87% 30.06 in 10.0 mi ESE 4.6 mph - 0.00 in   Clear
10:53 PM 55.0 °F 52.0 °F 89% 30.05 in 10.0 mi ENE 3.5 mph - 0.00 in Rain Light Rain
11:53 PM 52.0 °F 50.0 °F 93% 30.06 in 9.0 mi NW 4.6 mph - 0.00 in   Partly Cloudy